Year,Month,Day,Hour,Minute,Value (Times are PST for windgust in km/hr)
2015,10,10,00,00,40.20
2015,10,10,00,01,37.00
2015,10,10,00,02,40.20
2015,10,10,00,03,41.80
2015,10,10,00,04,43.50
2015,10,10,00,05,37.00
2015,10,10,00,06,30.60
2015,10,10,00,07,30.60
2015,10,10,00,08,25.70
2015,10,10,00,09,35.40
2015,10,10,00,10,33.80
2015,10,10,00,11,41.80
2015,10,10,00,12,37.00
2015,10,10,00,13,38.60
2015,10,10,00,14,43.50
2015,10,10,00,15,20.90
2015,10,10,00,16,29.00
2015,10,10,00,17,32.20
2015,10,10,00,18,33.80
2015,10,10,00,19,45.10
2015,10,10,00,20,40.20
2015,10,10,00,21,41.80
2015,10,10,00,22,33.80
2015,10,10,00,23,45.10
2015,10,10,00,24,38.60
2015,10,10,00,25,38.60
2015,10,10,00,26,24.20
2015,10,10,00,27,25.70
2015,10,10,00,28,45.10
2015,10,10,00,29,48.30
2015,10,10,00,30,27.40
2015,10,10,00,31,32.20
2015,10,10,00,32,29.00
2015,10,10,00,33,32.20
2015,10,10,00,34,33.80
2015,10,10,00,35,43.50
2015,10,10,00,36,41.80
2015,10,10,00,37,32.20
2015,10,10,00,38,38.60
2015,10,10,00,39,27.40
2015,10,10,00,40,19.30
2015,10,10,00,41,22.50
2015,10,10,00,42,38.60
2015,10,10,00,43,24.20
2015,10,10,00,44,38.60
2015,10,10,00,45,49.90
2015,10,10,00,46,51.50
2015,10,10,00,47,22.50
2015,10,10,00,48,32.20
2015,10,10,00,49,27.40
2015,10,10,00,50,30.60
2015,10,10,00,51,35.40
2015,10,10,00,52,48.30
2015,10,10,00,53,35.40
2015,10,10,00,54,38.60
2015,10,10,00,55,35.40
2015,10,10,00,56,32.20
2015,10,10,00,57,45.10
2015,10,10,00,58,22.50
2015,10,10,00,59,30.60
2015,10,10,01,00,35.40
2015,10,10,01,01,40.20
2015,10,10,01,02,35.40
2015,10,10,01,03,27.40
2015,10,10,01,04,32.20
2015,10,10,01,05,32.20
2015,10,10,01,06,30.60
2015,10,10,01,07,20.90
2015,10,10,01,08,27.40
2015,10,10,01,09,32.20
2015,10,10,01,10,25.70
2015,10,10,01,11,33.80
2015,10,10,01,12,25.70
2015,10,10,01,13,29.00
2015,10,10,01,14,48.30
2015,10,10,01,15,43.50
2015,10,10,01,16,25.70
2015,10,10,01,17,30.60
2015,10,10,01,18,20.90
2015,10,10,01,19,25.70
2015,10,10,01,20,30.60
2015,10,10,01,21,35.40
2015,10,10,01,22,27.40
2015,10,10,01,23,33.80
2015,10,10,01,24,29.00
2015,10,10,01,25,45.10
2015,10,10,01,26,43.50
2015,10,10,01,27,33.80
2015,10,10,01,28,24.20
2015,10,10,01,29,41.80
2015,10,10,01,30,32.20
2015,10,10,01,31,27.40
2015,10,10,01,32,30.60
2015,10,10,01,33,27.40
2015,10,10,01,34,32.20
2015,10,10,01,35,33.80
2015,10,10,01,36,37.00
2015,10,10,01,37,38.60
2015,10,10,01,38,30.60
2015,10,10,01,39,25.70
2015,10,10,01,40,35.40
2015,10,10,01,41,25.70
2015,10,10,01,42,32.20
2015,10,10,01,43,41.80
2015,10,10,01,44,29.00
2015,10,10,01,45,19.30
2015,10,10,01,46,38.60
2015,10,10,01,47,27.40
2015,10,10,01,48,17.70
2015,10,10,01,49,30.60
2015,10,10,01,50,40.20
2015,10,10,01,51,40.20
2015,10,10,01,52,22.50
2015,10,10,01,53,14.50
2015,10,10,01,54,29.00
2015,10,10,01,55,29.00
2015,10,10,01,56,32.20
2015,10,10,01,57,27.40
2015,10,10,01,58,30.60
2015,10,10,01,59,35.40
2015,10,10,02,00,33.80
2015,10,10,02,01,22.50
2015,10,10,02,02,38.60
2015,10,10,02,03,17.70
2015,10,10,02,04,38.60
2015,10,10,02,05,33.80
2015,10,10,02,06,24.20
2015,10,10,02,07,24.20
2015,10,10,02,08,32.20
2015,10,10,02,09,29.00
2015,10,10,02,10,32.20
2015,10,10,02,11,35.40
2015,10,10,02,12,38.60
2015,10,10,02,13,27.40
2015,10,10,02,14,35.40
2015,10,10,02,15,37.00
2015,10,10,02,16,25.70
2015,10,10,02,17,41.80
2015,10,10,02,18,32.20
2015,10,10,02,19,33.80
2015,10,10,02,20,27.40
2015,10,10,02,21,25.70
2015,10,10,02,22,32.20
2015,10,10,02,23,41.80
2015,10,10,02,24,27.40
2015,10,10,02,25,35.40
2015,10,10,02,26,33.80
2015,10,10,02,27,54.70
2015,10,10,02,28,29.00
2015,10,10,02,29,33.80
2015,10,10,02,30,38.60
2015,10,10,02,31,29.00
2015,10,10,02,32,29.00
2015,10,10,02,33,24.20
2015,10,10,02,34,25.70
2015,10,10,02,35,30.60
2015,10,10,02,36,33.80
2015,10,10,02,37,41.80
2015,10,10,02,38,32.20
2015,10,10,02,39,22.50
2015,10,10,02,40,30.60
2015,10,10,02,41,30.60
2015,10,10,02,42,29.00
2015,10,10,02,43,45.10
2015,10,10,02,44,40.20
2015,10,10,02,45,37.00
2015,10,10,02,46,24.20
2015,10,10,02,47,27.40
2015,10,10,02,48,20.90
2015,10,10,02,49,30.60
2015,10,10,02,50,33.80
2015,10,10,02,51,40.20
2015,10,10,02,52,43.50
2015,10,10,02,53,35.40
2015,10,10,02,54,20.90
2015,10,10,02,55,24.20
2015,10,10,02,56,38.60
2015,10,10,02,57,38.60
2015,10,10,02,58,32.20
2015,10,10,02,59,46.70
2015,10,10,03,00,37.00
2015,10,10,03,01,33.80
2015,10,10,03,02,32.20
2015,10,10,03,03,33.80
2015,10,10,03,06,27.40
2015,10,10,03,07,38.60
2015,10,10,03,08,27.40
2015,10,10,03,09,30.60
2015,10,10,03,10,32.20
2015,10,10,03,11,32.20
2015,10,10,03,12,19.30
2015,10,10,03,13,37.00
2015,10,10,03,14,37.00
2015,10,10,03,15,33.80
2015,10,10,03,16,33.80
2015,10,10,03,17,29.00
2015,10,10,03,18,38.60
2015,10,10,03,19,35.40
2015,10,10,03,20,27.40
2015,10,10,03,21,33.80
2015,10,10,03,22,40.20
2015,10,10,03,23,30.60
2015,10,10,03,24,22.50
2015,10,10,03,25,35.40
2015,10,10,03,26,33.80
2015,10,10,03,27,24.20
2015,10,10,03,28,40.20
2015,10,10,03,29,35.40
2015,10,10,03,30,40.20
2015,10,10,03,31,30.60
2015,10,10,03,32,40.20
2015,10,10,03,33,38.60
2015,10,10,03,34,35.40
2015,10,10,03,35,30.60
2015,10,10,03,36,29.00
2015,10,10,03,37,29.00
2015,10,10,03,38,37.00
2015,10,10,03,39,32.20
2015,10,10,03,40,43.50
2015,10,10,03,41,24.20
2015,10,10,03,42,38.60
2015,10,10,03,43,33.80
2015,10,10,03,44,40.20
2015,10,10,03,45,30.60
2015,10,10,03,46,40.20
2015,10,10,03,47,32.20
2015,10,10,03,48,40.20
2015,10,10,03,49,35.40
2015,10,10,03,50,22.50
2015,10,10,03,51,35.40
2015,10,10,03,52,38.60
2015,10,10,03,53,32.20
2015,10,10,03,54,27.40
2015,10,10,03,55,38.60
2015,10,10,03,56,29.00
2015,10,10,03,57,32.20
2015,10,10,03,58,29.00
2015,10,10,03,59,24.20
2015,10,10,04,00,24.20
2015,10,10,04,01,35.40
2015,10,10,04,02,24.20
2015,10,10,04,03,27.40
2015,10,10,04,04,35.40
2015,10,10,04,05,46.70
2015,10,10,04,06,45.10
2015,10,10,04,07,41.80
2015,10,10,04,08,41.80
2015,10,10,04,09,32.20
2015,10,10,04,10,40.20
2015,10,10,04,11,33.80
2015,10,10,04,12,35.40
2015,10,10,04,13,30.60
2015,10,10,04,14,32.20
2015,10,10,04,15,43.50
2015,10,10,04,16,45.10
2015,10,10,04,17,38.60
2015,10,10,04,18,25.70
2015,10,10,04,19,35.40
2015,10,10,04,20,43.50
2015,10,10,04,21,33.80
2015,10,10,04,22,33.80
2015,10,10,04,23,33.80
2015,10,10,04,24,30.60
2015,10,10,04,25,35.40
2015,10,10,04,26,30.60
2015,10,10,04,27,29.00
2015,10,10,04,28,35.40
2015,10,10,04,29,45.10
2015,10,10,04,30,40.20
2015,10,10,04,31,35.40
2015,10,10,04,32,37.00
2015,10,10,04,33,41.80
2015,10,10,04,34,45.10
2015,10,10,04,35,38.60
2015,10,10,04,36,38.60
2015,10,10,04,37,35.40
2015,10,10,04,38,33.80
2015,10,10,04,39,25.70
2015,10,10,04,40,30.60
2015,10,10,04,41,24.20
2015,10,10,04,42,27.40
2015,10,10,04,43,37.00
2015,10,10,04,44,43.50
2015,10,10,04,45,33.80
2015,10,10,04,46,25.70
2015,10,10,04,47,29.00
2015,10,10,04,48,29.00
2015,10,10,04,49,27.40
2015,10,10,04,50,45.10
2015,10,10,04,51,40.20
2015,10,10,04,52,38.60
2015,10,10,04,53,38.60
2015,10,10,04,54,22.50
2015,10,10,04,55,17.70
2015,10,10,04,56,29.00
2015,10,10,04,57,48.30
2015,10,10,04,58,30.60
2015,10,10,04,59,29.00
2015,10,10,05,00,35.40
2015,10,10,05,01,40.20
2015,10,10,05,02,27.40
2015,10,10,05,03,30.60
2015,10,10,05,04,43.50
2015,10,10,05,05,32.20
2015,10,10,05,06,46.70
2015,10,10,05,07,38.60
2015,10,10,05,08,37.00
2015,10,10,05,09,33.80
2015,10,10,05,10,29.00
2015,10,10,05,11,37.00
2015,10,10,05,12,33.80
2015,10,10,05,13,27.40
2015,10,10,05,14,38.60
2015,10,10,05,15,46.70
2015,10,10,05,16,38.60
2015,10,10,05,17,33.80
2015,10,10,05,18,37.00
2015,10,10,05,19,33.80
2015,10,10,05,20,29.00
2015,10,10,05,21,24.20
2015,10,10,05,22,38.60
2015,10,10,05,23,35.40
2015,10,10,05,24,29.00
2015,10,10,05,25,20.90
2015,10,10,05,26,30.60
2015,10,10,05,27,20.90
2015,10,10,05,28,6.40
2015,10,10,05,29,19.30
2015,10,10,05,30,22.50
2015,10,10,05,31,24.20
2015,10,10,05,32,32.20
2015,10,10,05,33,29.00
2015,10,10,05,34,12.90
2015,10,10,05,35,16.10
2015,10,10,05,36,19.30
2015,10,10,05,37,22.50
2015,10,10,05,38,30.60
2015,10,10,05,39,43.50
2015,10,10,05,40,30.60
2015,10,10,05,41,33.80
2015,10,10,05,42,29.00
2015,10,10,05,43,37.00
2015,10,10,05,44,30.60
2015,10,10,05,45,24.20
2015,10,10,05,46,17.70
2015,10,10,05,47,17.70
2015,10,10,05,48,17.70
2015,10,10,05,49,22.50
2015,10,10,05,50,14.50
2015,10,10,05,51,14.50
2015,10,10,05,52,9.60
2015,10,10,05,53,19.30
2015,10,10,05,54,1.60
2015,10,10,05,56,14.50
2015,10,10,05,57,12.90
2015,10,10,05,58,16.10
2015,10,10,05,59,3.20
2015,10,10,06,00,20.90
2015,10,10,06,01,20.90
2015,10,10,06,02,19.30
2015,10,10,06,03,20.90
2015,10,10,06,04,12.90
2015,10,10,06,05,19.30
2015,10,10,06,06,24.20
2015,10,10,06,07,17.70
2015,10,10,06,08,24.20
2015,10,10,06,09,32.20
2015,10,10,06,10,32.20
2015,10,10,06,11,24.20
2015,10,10,06,12,22.50
2015,10,10,06,13,20.90
2015,10,10,06,14,14.50
2015,10,10,06,15,16.10
2015,10,10,06,16,16.10
2015,10,10,06,17,29.00
2015,10,10,06,18,29.00
2015,10,10,06,19,29.00
2015,10,10,06,20,33.80
2015,10,10,06,21,32.20
2015,10,10,06,22,37.00
2015,10,10,06,23,24.20
2015,10,10,06,24,24.20
2015,10,10,06,25,38.60
2015,10,10,06,26,45.10
2015,10,10,06,27,38.60
2015,10,10,06,28,25.70
2015,10,10,06,29,29.00
2015,10,10,06,30,30.60
2015,10,10,06,31,38.60
2015,10,10,06,32,25.70
2015,10,10,06,33,32.20
2015,10,10,06,34,27.40
2015,10,10,06,35,27.40
2015,10,10,06,36,33.80
2015,10,10,06,37,20.90
2015,10,10,06,38,32.20
2015,10,10,06,39,25.70
2015,10,10,06,40,25.70
2015,10,10,06,41,32.20
2015,10,10,06,42,20.90
2015,10,10,06,43,37.00
2015,10,10,06,44,33.80
2015,10,10,06,45,38.60
2015,10,10,06,46,35.40
2015,10,10,06,47,29.00
2015,10,10,06,48,27.40
2015,10,10,06,49,29.00
2015,10,10,06,50,27.40
2015,10,10,06,51,33.80
2015,10,10,06,52,25.70
2015,10,10,06,53,25.70
2015,10,10,06,54,35.40
2015,10,10,06,55,27.40
2015,10,10,06,56,25.70
2015,10,10,06,57,30.60
2015,10,10,06,58,22.50
2015,10,10,06,59,22.50
2015,10,10,07,00,41.80
2015,10,10,07,01,30.60
2015,10,10,07,02,33.80
2015,10,10,07,03,35.40
2015,10,10,07,04,30.60
2015,10,10,07,05,25.70
2015,10,10,07,06,33.80
2015,10,10,07,07,35.40
2015,10,10,07,08,29.00
2015,10,10,07,09,33.80
2015,10,10,07,10,27.40
2015,10,10,07,11,30.60
2015,10,10,07,12,41.80
2015,10,10,07,13,22.50
2015,10,10,07,14,14.50
2015,10,10,07,15,35.40
2015,10,10,07,16,27.40
2015,10,10,07,17,27.40
2015,10,10,07,18,22.50
2015,10,10,07,19,17.70
2015,10,10,07,20,32.20
2015,10,10,07,21,27.40
2015,10,10,07,22,19.30
2015,10,10,07,23,25.70
2015,10,10,07,24,19.30
2015,10,10,07,25,30.60
2015,10,10,07,26,30.60
2015,10,10,07,27,30.60
2015,10,10,07,28,22.50
2015,10,10,07,29,25.70
2015,10,10,07,30,16.10
2015,10,10,07,31,22.50
2015,10,10,07,32,17.70
2015,10,10,07,33,19.30
2015,10,10,07,34,24.20
2015,10,10,07,35,27.40
2015,10,10,07,36,17.70
2015,10,10,07,37,24.20
2015,10,10,07,38,27.40
2015,10,10,07,39,32.20
2015,10,10,07,40,35.40
2015,10,10,07,41,29.00
2015,10,10,07,42,20.90
2015,10,10,07,43,20.90
2015,10,10,07,44,22.50
2015,10,10,07,45,24.20
2015,10,10,07,46,27.40
2015,10,10,07,47,27.40
2015,10,10,07,48,16.10
2015,10,10,07,49,20.90
2015,10,10,07,50,17.70
2015,10,10,07,51,12.90
2015,10,10,07,52,30.60
2015,10,10,07,53,29.00
2015,10,10,07,54,30.60
2015,10,10,07,55,30.60
2015,10,10,07,56,25.70
2015,10,10,07,57,33.80
2015,10,10,07,58,29.00
2015,10,10,07,59,24.20
2015,10,10,08,00,38.60
2015,10,10,08,01,30.60
2015,10,10,08,02,22.50
2015,10,10,08,03,27.40
2015,10,10,08,04,22.50
2015,10,10,08,05,24.20
2015,10,10,08,06,24.20
2015,10,10,08,07,46.70
2015,10,10,08,08,41.80
2015,10,10,08,09,27.40
2015,10,10,08,10,25.70
2015,10,10,08,11,17.70
2015,10,10,08,12,20.90
2015,10,10,08,13,25.70
2015,10,10,08,14,29.00
2015,10,10,08,15,24.20
2015,10,10,08,16,19.30
2015,10,10,08,17,16.10
2015,10,10,08,18,22.50
2015,10,10,08,19,30.60
2015,10,10,08,20,19.30
2015,10,10,08,21,27.40
2015,10,10,08,22,27.40
2015,10,10,08,23,22.50
2015,10,10,08,24,24.20
2015,10,10,08,25,22.50
2015,10,10,08,26,19.30
2015,10,10,08,27,27.40
2015,10,10,08,28,24.20
2015,10,10,08,29,25.70
2015,10,10,08,30,20.90
2015,10,10,08,31,30.60
2015,10,10,08,32,32.20
2015,10,10,08,33,27.40
2015,10,10,08,34,24.20
2015,10,10,08,35,22.50
2015,10,10,08,36,17.70
2015,10,10,08,37,19.30
2015,10,10,08,38,30.60
2015,10,10,08,39,20.90
2015,10,10,08,40,27.40
2015,10,10,08,41,20.90
2015,10,10,08,42,19.30
2015,10,10,08,43,22.50
2015,10,10,08,44,9.60
2015,10,10,08,45,12.90
2015,10,10,08,46,19.30
2015,10,10,08,47,16.10
2015,10,10,08,48,14.50
2015,10,10,08,49,19.30
2015,10,10,08,50,27.40
2015,10,10,08,51,20.90
2015,10,10,08,52,14.50
2015,10,10,08,53,25.70
2015,10,10,08,54,40.20
2015,10,10,08,55,41.80
2015,10,10,08,56,11.30
2015,10,10,08,57,38.60
2015,10,10,08,58,19.30
2015,10,10,08,59,30.60
2015,10,10,09,00,33.80
2015,10,10,09,01,22.50
2015,10,10,09,02,14.50
2015,10,10,09,03,29.00
2015,10,10,09,04,22.50
2015,10,10,09,05,19.30
2015,10,10,09,06,25.70
2015,10,10,09,07,24.20
2015,10,10,09,08,12.90
2015,10,10,09,09,22.50
2015,10,10,09,10,19.30
2015,10,10,09,11,32.20
2015,10,10,09,12,22.50
2015,10,10,09,13,19.30
2015,10,10,09,14,30.60
2015,10,10,09,15,25.70
2015,10,10,09,16,20.90
2015,10,10,09,17,16.10
2015,10,10,09,18,16.10
2015,10,10,09,19,27.40
2015,10,10,09,20,14.50
2015,10,10,09,21,12.90
2015,10,10,09,22,11.30
2015,10,10,09,23,14.50
2015,10,10,09,24,19.30
2015,10,10,09,25,32.20
2015,10,10,09,26,19.30
2015,10,10,09,27,17.70
2015,10,10,09,28,22.50
2015,10,10,09,29,19.30
2015,10,10,09,30,11.30
2015,10,10,09,31,14.50
2015,10,10,09,32,11.30
2015,10,10,09,33,8.10
2015,10,10,09,34,11.30
2015,10,10,09,35,17.70
2015,10,10,09,36,9.60
2015,10,10,09,37,11.30
2015,10,10,09,38,19.30
2015,10,10,09,39,8.10
2015,10,10,09,40,11.30
2015,10,10,09,41,19.30
2015,10,10,09,42,6.40
2015,10,10,09,43,19.30
2015,10,10,09,44,16.10
2015,10,10,09,45,9.60
2015,10,10,09,46,20.90
2015,10,10,09,47,19.30
2015,10,10,09,48,12.90
2015,10,10,09,49,14.50
2015,10,10,09,50,22.50
2015,10,10,09,51,16.10
2015,10,10,09,52,24.20
2015,10,10,09,53,29.00
2015,10,10,09,54,20.90
2015,10,10,09,55,22.50
2015,10,10,09,56,19.30
2015,10,10,09,57,22.50
2015,10,10,09,58,20.90
2015,10,10,09,59,19.30
2015,10,10,10,00,22.50
2015,10,10,10,01,22.50
2015,10,10,10,02,32.20
2015,10,10,10,03,24.20
2015,10,10,10,04,16.10
2015,10,10,10,05,19.30
2015,10,10,10,06,19.30
2015,10,10,10,07,24.20
2015,10,10,10,08,38.60
2015,10,10,10,09,33.80
2015,10,10,10,10,20.90
2015,10,10,10,11,20.90
2015,10,10,10,12,14.50
2015,10,10,10,13,24.20
2015,10,10,10,14,38.60
2015,10,10,10,15,33.80
2015,10,10,10,16,29.00
2015,10,10,10,17,27.40
2015,10,10,10,18,22.50
2015,10,10,10,19,22.50
2015,10,10,10,20,19.30
2015,10,10,10,21,22.50
2015,10,10,10,22,19.30
2015,10,10,10,23,12.90
2015,10,10,10,24,14.50
2015,10,10,10,25,25.70
2015,10,10,10,26,27.40
2015,10,10,10,27,17.70
2015,10,10,10,28,19.30
2015,10,10,10,29,33.80
2015,10,10,10,30,51.50
2015,10,10,10,31,27.40
2015,10,10,10,32,24.20
2015,10,10,10,33,29.00
2015,10,10,10,34,27.40
2015,10,10,10,35,24.20
2015,10,10,10,36,38.60
2015,10,10,10,37,22.50
2015,10,10,10,38,35.40
2015,10,10,10,39,29.00
2015,10,10,10,40,32.20
2015,10,10,10,41,35.40
2015,10,10,10,42,46.70
2015,10,10,10,43,32.20
2015,10,10,10,44,25.70
2015,10,10,10,45,30.60
2015,10,10,10,46,22.50
2015,10,10,10,47,24.20
2015,10,10,10,48,24.20
2015,10,10,10,49,38.60
2015,10,10,10,50,32.20
2015,10,10,10,51,32.20
2015,10,10,10,52,33.80
2015,10,10,10,53,30.60
2015,10,10,10,54,43.50
2015,10,10,10,55,30.60
2015,10,10,10,56,27.40
2015,10,10,10,57,25.70
2015,10,10,10,58,30.60
2015,10,10,10,59,25.70
2015,10,10,11,00,24.20
2015,10,10,11,01,29.00
2015,10,10,11,02,27.40
2015,10,10,11,03,19.30
2015,10,10,11,04,30.60
2015,10,10,11,05,29.00
2015,10,10,11,06,22.50
2015,10,10,11,07,30.60
2015,10,10,11,08,30.60
2015,10,10,11,09,20.90
2015,10,10,11,10,14.50
2015,10,10,11,11,25.70
2015,10,10,11,12,24.20
2015,10,10,11,13,16.10
2015,10,10,11,14,54.70
2015,10,10,11,15,33.80
2015,10,10,11,16,40.20
2015,10,10,11,17,33.80
2015,10,10,11,18,30.60
2015,10,10,11,19,35.40
2015,10,10,11,20,30.60
2015,10,10,11,21,25.70
2015,10,10,11,22,41.80
2015,10,10,11,23,38.60
2015,10,10,11,24,33.80
2015,10,10,11,25,25.70
2015,10,10,11,26,17.70
2015,10,10,11,27,19.30
2015,10,10,11,28,16.10
2015,10,10,11,29,24.20
2015,10,10,11,30,29.00
2015,10,10,11,31,40.20
2015,10,10,11,32,43.50
2015,10,10,11,33,33.80
2015,10,10,11,34,24.20
2015,10,10,11,35,29.00
2015,10,10,11,36,38.60
2015,10,10,11,37,40.20
2015,10,10,11,38,24.20
2015,10,10,11,39,40.20
2015,10,10,11,40,20.90
2015,10,10,11,41,14.50
2015,10,10,11,42,25.70
2015,10,10,11,43,16.10
2015,10,10,11,44,30.60
2015,10,10,11,45,33.80
2015,10,10,11,46,30.60
2015,10,10,11,47,30.60
2015,10,10,11,48,40.20
2015,10,10,11,49,27.40
2015,10,10,11,50,30.60
2015,10,10,11,51,43.50
2015,10,10,11,52,48.30
2015,10,10,11,53,32.20
2015,10,10,11,54,33.80
2015,10,10,11,55,29.00
2015,10,10,11,56,16.10
2015,10,10,11,57,19.30
2015,10,10,11,58,14.50
2015,10,10,11,59,8.10
2015,10,10,12,00,6.40
2015,10,10,12,01,12.90
2015,10,10,12,02,14.50
2015,10,10,12,03,14.50
2015,10,10,12,04,12.90
2015,10,10,12,05,20.90
2015,10,10,12,06,11.30
2015,10,10,12,07,17.70
2015,10,10,12,08,11.30
2015,10,10,12,09,12.90
2015,10,10,12,10,12.90
2015,10,10,12,11,9.60
2015,10,10,12,12,16.10
2015,10,10,12,13,16.10
2015,10,10,12,14,12.90
2015,10,10,12,15,16.10
2015,10,10,12,16,17.70
2015,10,10,12,17,6.40
2015,10,10,12,18,24.20
2015,10,10,12,19,22.50
2015,10,10,12,20,6.40
2015,10,10,12,21,12.90
2015,10,10,12,22,12.90
2015,10,10,12,23,8.10
2015,10,10,12,24,19.30
2015,10,10,12,25,14.50
2015,10,10,12,26,16.10
2015,10,10,12,27,12.90
2015,10,10,12,28,17.70
2015,10,10,12,29,19.30
2015,10,10,12,30,22.50
2015,10,10,12,31,11.30
2015,10,10,12,32,11.30
2015,10,10,12,33,11.30
2015,10,10,12,34,16.10
2015,10,10,12,35,11.30
2015,10,10,12,36,17.70
2015,10,10,12,37,17.70
2015,10,10,12,38,14.50
2015,10,10,12,39,25.70
2015,10,10,12,40,12.90
2015,10,10,12,42,11.30
2015,10,10,12,43,16.10
2015,10,10,12,44,11.30
2015,10,10,12,45,4.80
2015,10,10,12,46,16.10
2015,10,10,12,47,17.70
2015,10,10,12,48,12.90
2015,10,10,12,49,14.50
2015,10,10,12,50,14.50
2015,10,10,12,51,29.00
2015,10,10,12,52,12.90
2015,10,10,12,53,11.30
2015,10,10,12,54,9.60
2015,10,10,12,55,11.30
2015,10,10,12,56,19.30
2015,10,10,12,57,6.40
2015,10,10,12,58,11.30
2015,10,10,12,59,9.60
2015,10,10,13,01,12.90
2015,10,10,13,02,8.10
2015,10,10,13,03,8.10
2015,10,10,13,04,6.40
2015,10,10,13,05,6.40
2015,10,10,13,06,6.40
2015,10,10,13,07,3.20
2015,10,10,13,08,9.60
2015,10,10,13,09,12.90
2015,10,10,13,10,11.30
2015,10,10,13,11,9.60
2015,10,10,13,12,8.10
2015,10,10,13,13,8.10
2015,10,10,13,14,9.60
2015,10,10,13,15,19.30
2015,10,10,13,16,8.10
2015,10,10,13,18,6.40
2015,10,10,13,19,4.80
2015,10,10,13,25,11.30
2015,10,10,13,26,6.40
2015,10,10,13,27,16.10
2015,10,10,13,28,17.70
2015,10,10,13,29,11.30
2015,10,10,13,30,11.30
2015,10,10,13,31,9.60
2015,10,10,13,32,8.10
2015,10,10,13,33,12.90
2015,10,10,13,34,14.50
2015,10,10,13,35,12.90
2015,10,10,13,36,19.30
2015,10,10,13,37,22.50
2015,10,10,13,38,11.30
2015,10,10,13,39,17.70
2015,10,10,13,40,17.70
2015,10,10,13,41,14.50
2015,10,10,13,42,11.30
2015,10,10,13,43,9.60
2015,10,10,13,45,11.30
2015,10,10,13,46,11.30
2015,10,10,13,47,12.90
2015,10,10,13,48,22.50
2015,10,10,13,49,9.60
2015,10,10,13,50,4.80
2015,10,10,13,51,9.60
2015,10,10,13,52,19.30
2015,10,10,13,53,16.10
2015,10,10,13,54,19.30
2015,10,10,13,55,16.10
2015,10,10,13,56,24.20
2015,10,10,13,57,9.60
2015,10,10,13,58,16.10
2015,10,10,13,59,11.30
2015,10,10,14,00,20.90
2015,10,10,14,01,22.50
2015,10,10,14,02,20.90
2015,10,10,14,03,30.60
2015,10,10,14,04,24.20
2015,10,10,14,05,20.90
2015,10,10,14,06,24.20
2015,10,10,14,07,32.20
2015,10,10,14,08,29.00
2015,10,10,14,09,35.40
2015,10,10,14,10,19.30
2015,10,10,14,11,38.60
2015,10,10,14,12,14.50
2015,10,10,14,13,20.90
2015,10,10,14,14,19.30
2015,10,10,14,15,16.10
2015,10,10,14,16,16.10
2015,10,10,14,17,17.70
2015,10,10,14,18,19.30
2015,10,10,14,19,25.70
2015,10,10,14,20,14.50
2015,10,10,14,21,22.50
2015,10,10,14,22,22.50
2015,10,10,14,23,22.50
2015,10,10,14,24,19.30
2015,10,10,14,25,22.50
2015,10,10,14,26,24.20
2015,10,10,14,27,14.50
2015,10,10,14,28,17.70
2015,10,10,14,29,19.30
2015,10,10,14,30,11.30
2015,10,10,14,31,17.70
2015,10,10,14,32,17.70
2015,10,10,14,33,20.90
2015,10,10,14,34,19.30
2015,10,10,14,35,24.20
2015,10,10,14,36,22.50
2015,10,10,14,37,29.00
2015,10,10,14,38,32.20
2015,10,10,14,39,30.60
2015,10,10,14,40,32.20
2015,10,10,14,41,24.20
2015,10,10,14,42,19.30
2015,10,10,14,43,16.10
2015,10,10,14,44,20.90
2015,10,10,14,45,17.70
2015,10,10,14,46,17.70
2015,10,10,14,47,20.90
2015,10,10,14,48,22.50
2015,10,10,14,49,22.50
2015,10,10,14,50,14.50
2015,10,10,14,51,14.50
2015,10,10,14,52,12.90
2015,10,10,14,53,19.30
2015,10,10,14,54,19.30
2015,10,10,14,55,20.90
2015,10,10,14,56,14.50
2015,10,10,14,57,14.50
2015,10,10,14,58,16.10
2015,10,10,14,59,14.50
2015,10,10,15,00,9.60
2015,10,10,15,01,14.50
2015,10,10,15,02,16.10
2015,10,10,15,03,24.20
2015,10,10,15,04,19.30
2015,10,10,15,05,17.70
2015,10,10,15,06,14.50
2015,10,10,15,07,12.90
2015,10,10,15,08,19.30
2015,10,10,15,09,19.30
2015,10,10,15,10,17.70
2015,10,10,15,11,12.90
2015,10,10,15,12,24.20
2015,10,10,15,13,29.00
2015,10,10,15,14,27.40
2015,10,10,15,15,22.50
2015,10,10,15,16,19.30
2015,10,10,15,17,19.30
2015,10,10,15,18,19.30
2015,10,10,15,19,24.20
2015,10,10,15,20,17.70
2015,10,10,15,21,12.90
2015,10,10,15,22,16.10
2015,10,10,15,23,12.90
2015,10,10,15,24,19.30
2015,10,10,15,25,16.10
2015,10,10,15,26,16.10
2015,10,10,15,27,12.90
2015,10,10,15,28,22.50
2015,10,10,15,29,16.10
2015,10,10,15,30,17.70
2015,10,10,15,31,20.90
2015,10,10,15,32,16.10
2015,10,10,15,33,17.70
2015,10,10,15,34,24.20
2015,10,10,15,35,22.50
2015,10,10,15,36,25.70
2015,10,10,15,37,11.30
2015,10,10,15,38,20.90
2015,10,10,15,39,16.10
2015,10,10,15,40,25.70
2015,10,10,15,41,14.50
2015,10,10,15,42,20.90
2015,10,10,15,43,24.20
2015,10,10,15,44,17.70
2015,10,10,15,45,25.70
2015,10,10,15,46,40.20
2015,10,10,15,47,24.20
2015,10,10,15,48,29.00
2015,10,10,15,49,22.50
2015,10,10,15,50,30.60
2015,10,10,15,51,14.50
2015,10,10,15,52,25.70
2015,10,10,15,53,16.10
2015,10,10,15,54,22.50
2015,10,10,15,55,24.20
2015,10,10,15,56,20.90
2015,10,10,15,57,16.10
2015,10,10,15,58,11.30
2015,10,10,15,59,20.90
2015,10,10,16,00,27.40
2015,10,10,16,01,25.70
2015,10,10,16,02,14.50
2015,10,10,16,03,32.20
2015,10,10,16,04,29.00
2015,10,10,16,05,25.70
2015,10,10,16,06,22.50
2015,10,10,16,07,27.40
2015,10,10,16,08,22.50
2015,10,10,16,09,30.60
2015,10,10,16,10,29.00
2015,10,10,16,11,32.20
2015,10,10,16,12,30.60
2015,10,10,16,13,20.90
2015,10,10,16,14,17.70
2015,10,10,16,15,20.90
2015,10,10,16,16,22.50
2015,10,10,16,17,20.90
2015,10,10,16,18,29.00
2015,10,10,16,19,12.90
2015,10,10,16,20,22.50
2015,10,10,16,21,25.70
2015,10,10,16,22,29.00
2015,10,10,16,23,30.60
2015,10,10,16,24,27.40
2015,10,10,16,25,24.20
2015,10,10,16,26,32.20
2015,10,10,16,27,32.20
2015,10,10,16,28,24.20
2015,10,10,16,29,17.70
2015,10,10,16,30,22.50
2015,10,10,16,31,22.50
2015,10,10,16,32,25.70
2015,10,10,16,33,29.00
2015,10,10,16,34,25.70
2015,10,10,16,35,27.40
2015,10,10,16,36,16.10
2015,10,10,16,37,30.60
2015,10,10,16,38,20.90
2015,10,10,16,39,22.50
2015,10,10,16,40,12.90
2015,10,10,16,41,19.30
2015,10,10,16,42,16.10
2015,10,10,16,43,12.90
2015,10,10,16,44,14.50
2015,10,10,16,45,17.70
2015,10,10,16,46,27.40
2015,10,10,16,47,27.40
2015,10,10,16,48,17.70
2015,10,10,16,49,11.30
2015,10,10,16,50,9.60
2015,10,10,16,51,17.70
2015,10,10,16,52,20.90
2015,10,10,16,53,22.50
2015,10,10,16,54,20.90
2015,10,10,16,55,9.60
2015,10,10,16,56,11.30
2015,10,10,16,57,24.20
2015,10,10,16,58,12.90
2015,10,10,16,59,19.30
2015,10,10,17,00,25.70
2015,10,10,17,01,22.50
2015,10,10,17,02,19.30
2015,10,10,17,03,16.10
2015,10,10,17,04,29.00
2015,10,10,17,05,12.90
2015,10,10,17,06,16.10
2015,10,10,17,07,22.50
2015,10,10,17,08,16.10
2015,10,10,17,09,9.60
2015,10,10,17,10,24.20
2015,10,10,17,11,29.00
2015,10,10,17,12,38.60
2015,10,10,17,13,16.10
2015,10,10,17,14,29.00
2015,10,10,17,15,32.20
2015,10,10,17,16,25.70
2015,10,10,17,17,29.00
2015,10,10,17,18,20.90
2015,10,10,17,19,30.60
2015,10,10,17,20,25.70
2015,10,10,17,21,30.60
2015,10,10,17,22,32.20
2015,10,10,17,23,27.40
2015,10,10,17,24,33.80
2015,10,10,17,25,30.60
2015,10,10,17,26,27.40
2015,10,10,17,27,25.70
2015,10,10,17,28,24.20
2015,10,10,17,29,22.50
2015,10,10,17,30,29.00
2015,10,10,17,31,22.50
2015,10,10,17,32,29.00
2015,10,10,17,33,27.40